User: anonymous   Login
Location: Newark
(21.1200°N, 73.4000°E)
Time: 15:36:25
(UTC+00:00)
Language:

SR - Orbit

View from above orbital plane
View from above orbital plane
View from above satellite
View from above satellite

Ground track
Ground track

The orbit data is extracted from the following two-line orbital elements,

1    46U 60007B   21018.90565668 -.00000031  00000-0  17112-4 0  9991
2    46  66.6890 184.3630 0214089 328.9320  29.9267 14.49359293170320
Epoch (UTC): 18 January 2021 21:44:08
Eccentricity: 0.0214089
inclination: 66.6890°
perigee height: 575 km
apogee height: 880 km
right ascension of ascending node: 184.3630°
argument of perigee: 328.9320°
revolutions per day: 14.49359293
mean anomaly at epoch: 29.9267°
orbit number at epoch: 17032

The dashed part of the orbit path shows where the satellite is in the earth's shadow,  

DLR